User: anonymous   Login
Location: Caltech
(34.1382°N, 118.1253°W)
Time: 23:40:39
(UTC-07:00)
Language:

Iridium 95 - Orbit

View from above orbital plane
View from above orbital plane
View from above satellite
View from above satellite

Ground track
Ground track

The orbit data is extracted from the following two-line orbital elements,

1 27375U 02005D   17147.54359777 +.00000016 +00000-0 -12282-5 0  9996
2 27375 086.3936 295.8164 0002546 111.9613 248.1853 14.34213430807927
Epoch (UTC): 27 May 2017 13:02:46
Eccentricity: 0.0002546
inclination: 86.3936°
perigee height: 776 km
apogee height: 779 km
right ascension of ascending node: 295.8164°
argument of perigee: 111.9613°
revolutions per day: 14.34213430
mean anomaly at epoch: 248.1853°
orbit number at epoch: 80792

The dashed part of the orbit path shows where the satellite is in the earth's shadow,  

DLR